TimeCDT,TemperatureF,Dew PointF,Humidity,Sea Level PressureIn,VisibilityMPH,Wind Direction,Wind SpeedMPH,Gust SpeedMPH,PrecipitationIn,Events,Conditions,WindDirDegrees,DateUTC
12:13 AM,44.6,44.6,100,29.78,10.0,SSE,6.9,-,N/A,,Clear,150,2012-10-21 05:13:00
12:33 AM,44.6,44.6,100,29.77,10.0,SSE,6.9,-,N/A,,Clear,150,2012-10-21 05:33:00
12:53 AM,44.6,44.6,100,29.78,10.0,SSE,8.1,-,N/A,,Clear,150,2012-10-21 05:53:00
1:13 AM,44.6,44.6,100,29.78,10.0,SSE,5.8,-,N/A,,Clear,150,2012-10-21 06:13:00
1:33 AM,46.4,46.4,100,29.79,10.0,SE,5.8,-,N/A,,Clear,140,2012-10-21 06:33:00
1:53 AM,46.4,46.4,100,29.79,10.0,SE,6.9,-,N/A,,Clear,140,2012-10-21 06:53:00
2:13 AM,44.6,44.6,100,29.79,10.0,SE,6.9,-,N/A,,Unknown,140,2012-10-21 07:13:00
2:33 AM,44.6,44.6,100,29.80,7.0,SE,5.8,-,N/A,,Unknown,130,2012-10-21 07:33:00
2:53 AM,44.6,44.6,100,29.80,10.0,SE,5.8,-,N/A,,Unknown,130,2012-10-21 07:53:00
3:13 AM,42.8,42.8,100,29.79,7.0,SE,6.9,-,N/A,,Clear,130,2012-10-21 08:13:00
3:33 AM,42.8,42.8,100,29.79,7.0,SE,8.1,-,N/A,,Clear,130,2012-10-21 08:33:00
3:53 AM,42.8,42.8,100,29.79,7.0,SE,6.9,-,N/A,,Clear,130,2012-10-21 08:53:00
4:13 AM,41.0,41.0,100,29.78,7.0,ESE,8.1,-,N/A,,Clear,110,2012-10-21 09:13:00
4:33 AM,42.8,42.8,100,29.78,7.0,ESE,8.1,-,N/A,,Clear,120,2012-10-21 09:33:00
4:53 AM,42.8,42.8,100,29.78,7.0,SE,6.9,-,N/A,,Clear,130,2012-10-21 09:53:00
5:13 AM,42.8,42.8,100,29.78,7.0,ESE,9.2,-,N/A,,Clear,120,2012-10-21 10:13:00
5:33 AM,41.0,41.0,100,29.78,7.0,ESE,6.9,-,N/A,,Clear,120,2012-10-21 10:33:00
5:54 AM,41.0,41.0,100,29.77,7.0,ESE,9.2,-,N/A,,Clear,120,2012-10-21 10:54:00
6:13 AM,41.0,41.0,100,29.78,7.0,ESE,8.1,-,N/A,,Clear,110,2012-10-21 11:13:00
6:33 AM,42.8,42.8,100,29.78,7.0,ESE,10.4,-,N/A,,Clear,110,2012-10-21 11:33:00
6:54 AM,42.8,42.8,100,29.77,7.0,ESE,8.1,-,N/A,,Clear,110,2012-10-21 11:54:00
7:13 AM,42.8,42.8,100,29.78,7.0,ESE,8.1,-,N/A,,Clear,120,2012-10-21 12:13:00
7:33 AM,42.8,42.8,100,29.76,7.0,ESE,13.8,-,N/A,,Clear,110,2012-10-21 12:33:00
7:54 AM,42.8,42.8,100,29.76,7.0,ESE,10.4,-,N/A,,Clear,120,2012-10-21 12:54:00
8:13 AM,42.8,42.8,100,29.77,7.0,SE,10.4,-,N/A,,Clear,130,2012-10-21 13:13:00
8:33 AM,44.6,44.6,100,29.76,7.0,ESE,11.5,-,N/A,,Clear,120,2012-10-21 13:33:00
8:53 AM,44.6,44.6,100,29.77,10.0,ESE,10.4,-,N/A,,Clear,120,2012-10-21 13:53:00
9:13 AM,46.4,46.4,100,29.76,10.0,ESE,15.0,-,N/A,,Clear,120,2012-10-21 14:13:00
9:33 AM,48.2,48.2,100,29.75,10.0,ESE,15.0,-,N/A,,Clear,120,2012-10-21 14:33:00
9:53 AM,51.8,50.0,94,29.76,10.0,SE,12.7,-,N/A,,Clear,130,2012-10-21 14:53:00
10:13 AM,51.8,51.8,100,29.77,10.0,SE,9.2,-,N/A,,Clear,130,2012-10-21 15:13:00
10:33 AM,55.4,53.6,94,29.78,10.0,SE,9.2,-,N/A,,Clear,140,2012-10-21 15:33:00
10:53 AM,55.4,51.8,88,29.77,10.0,SE,9.2,-,N/A,,Clear,140,2012-10-21 15:53:00
11:14 AM,57.2,51.8,82,29.77,10.0,SE,9.2,-,N/A,,Clear,140,2012-10-21 16:14:00
11:33 AM,57.2,51.8,82,29.77,10.0,SE,11.5,-,N/A,,Clear,140,2012-10-21 16:33:00
11:53 AM,59.0,50.0,72,29.77,10.0,SSE,8.1,-,N/A,,Clear,150,2012-10-21 16:53:00
12:14 PM,59.0,48.2,67,29.75,10.0,SSE,9.2,16.1,N/A,,Clear,150,2012-10-21 17:14:00
12:33 PM,59.0,50.0,72,29.77,10.0,SSE,6.9,-,N/A,,Clear,150,2012-10-21 17:33:00
12:53 PM,60.8,51.8,72,29.77,10.0,SSE,5.8,-,N/A,,Clear,150,2012-10-21 17:53:00
1:14 PM,60.8,51.8,72,29.76,10.0,SSE,6.9,-,N/A,,Clear,150,2012-10-21 18:14:00
1:33 PM,62.6,51.8,68,29.77,10.0,South,3.5,-,N/A,,Clear,180,2012-10-21 18:33:00
1:53 PM,64.4,48.2,56,29.77,10.0,SW,3.5,-,N/A,,Clear,230,2012-10-21 18:53:00
2:14 PM,64.4,50.0,59,29.77,10.0,SSW,4.6,-,N/A,,Mostly Cloudy,200,2012-10-21 19:14:00
2:33 PM,62.6,48.2,59,29.78,10.0,Calm,Calm,-,N/A,,Mostly Cloudy,0,2012-10-21 19:33:00
2:53 PM,64.4,46.4,52,29.78,10.0,SW,3.5,-,N/A,,Mostly Cloudy,220,2012-10-21 19:53:00
3:14 PM,62.6,46.4,55,29.78,10.0,West,4.6,-,N/A,,Scattered Clouds,270,2012-10-21 20:14:00
3:33 PM,60.8,46.4,59,29.79,10.0,WNW,3.5,-,N/A,,Scattered Clouds,290,2012-10-21 20:33:00
3:52 PM,62.6,48.2,59,29.80,10.0,WNW,4.6,-,N/A,,Unknown,300,2012-10-21 20:52:00
4:13 PM,62.6,46.4,55,29.80,10.0,WNW,8.1,-,N/A,,Scattered Clouds,290,2012-10-21 21:13:00
4:33 PM,60.8,46.4,59,29.81,10.0,WNW,6.9,-,N/A,,Scattered Clouds,300,2012-10-21 21:33:00
4:53 PM,60.8,46.4,59,29.81,10.0,WNW,5.8,-,N/A,,Scattered Clouds,290,2012-10-21 21:53:00
5:13 PM,60.8,46.4,59,29.82,10.0,WNW,5.8,-,N/A,,Clear,300,2012-10-21 22:13:00
5:33 PM,59.0,46.4,63,29.82,10.0,NW,5.8,-,N/A,,Clear,320,2012-10-21 22:33:00
5:53 PM,57.2,46.4,67,29.83,10.0,NW,6.9,-,N/A,,Clear,310,2012-10-21 22:53:00
6:13 PM,55.4,46.4,72,29.84,10.0,Calm,Calm,-,N/A,,Clear,0,2012-10-21 23:13:00
6:34 PM,53.6,44.6,72,29.85,10.0,WNW,3.5,-,N/A,,Clear,290,2012-10-21 23:34:00
6:53 PM,53.6,46.4,77,29.86,10.0,NW,4.6,-,N/A,,Clear,320,2012-10-21 23:53:00
7:13 PM,51.8,48.2,88,29.86,10.0,NNW,6.9,-,N/A,,Clear,330,2012-10-22 00:13:00
7:33 PM,51.8,46.4,82,29.87,10.0,NNW,6.9,-,N/A,,Clear,330,2012-10-22 00:33:00
7:53 PM,50.0,46.4,87,29.88,10.0,NNW,6.9,-,N/A,,Clear,330,2012-10-22 00:53:00
8:13 PM,50.0,46.4,87,29.89,10.0,NNW,6.9,-,N/A,,Clear,330,2012-10-22 01:13:00
8:33 PM,48.2,46.4,93,29.89,10.0,NNW,6.9,-,N/A,,Clear,330,2012-10-22 01:33:00
8:53 PM,48.2,46.4,93,29.90,10.0,NNW,5.8,-,N/A,,Clear,340,2012-10-22 01:53:00
9:13 PM,48.2,44.6,87,29.90,10.0,NNW,5.8,-,N/A,,Clear,340,2012-10-22 02:13:00
9:33 PM,46.4,44.6,93,29.91,10.0,NNW,5.8,-,N/A,,Clear,330,2012-10-22 02:33:00
9:53 PM,46.4,44.6,93,29.91,10.0,NNW,5.8,-,N/A,,Clear,330,2012-10-22 02:53:00
10:13 PM,48.2,46.4,93,29.91,10.0,NNW,5.8,-,N/A,,Clear,340,2012-10-22 03:13:00
10:33 PM,46.4,44.6,93,29.92,-9999.0,NNW,4.6,-,N/A,,Clear,330,2012-10-22 03:33:00
10:53 PM,46.4,44.6,93,29.91,10.0,NNW,3.5,-,N/A,,Clear,340,2012-10-22 03:53:00
11:33 PM,44.6,44.6,100,29.91,10.0,Calm,Calm,-,N/A,,Clear,0,2012-10-22 04:33:00
11:53 PM,46.4,44.6,93,29.91,10.0,NW,3.5,-,N/A,,Clear,310,2012-10-22 04:53:00